CAPE
5 6 5 4 3 2 2 1 0 1 3 4 1 0 0 1 0 0 1 3 4 4 1 0 0 0 0 0 0 0 0 1 0 0 0 0 0 0 0 0 0 0 0 0 0 0 0
6 2 1 2 5 4 5 5 3 3 4 5 2 0 0 0 0 0 0 1 3 4 3 0 0 0 0 0 0 0 0 0 0 0 0 0 0 0 0 0 0 0 0 0 0 0 0
2 2 0 2 1 4 1 4 2 2 3 2 0 0 0 0 0 0 0 0 0 3 4 0 0 0 0 0 0 0 0 0 0 0 0 0 0 0 0 0 0 0 0 0 0 0 0
2 1 2 1 3 2 6 3 6 3 2 3 2 0 0 0 0 0 0 0 0 0 0 0 0 0 0 0 0 0 0 0 0 0 0 0 0 0 0 0 0 1 0 0 0 0 0
3 1 7 2 5 4 6 2 5 5 2 3 2 0 0 0 0 0 0 0 0 0 0 0 0 0 0 0 0 0 0 0 0 0 0 2 4 0 1 1 0 0 0 0 0 0 0
4 1 1 3 4 2 5 6 5 5 9 2 1 1 0 0 0 0 0 0 0 0 0 0 0 0 0 0 0 0 0 0 0 1 0 1 1 2 0 0 0 0 0 0 0 0 0
2 2 2 2 2 4 1 10 3 5 4 0 0 0 2 0 0 0 0 0 0 0 0 0 0 0 0 0 0 0 0 0 0 1 0 1 0 0 0 0 0 0 0 0 0 0 0
3 4 5 3 3 3 0 1 2 1 1 0 0 0 0 0 0 0 0 0 0 0 0 0 0 0 0 0 0 0 0 0 1 0 1 0 0 0 0 0 0 0 0 0 0 0 0
2 3 2 3 3 3 0 0 0 3 0 0 0 0 0 0 0 0 0 0 0 0 0 0 0 0 0 0 0 0 0 0 0 1 1 0 0 0 0 0 0 0 0 0 0 0 0
3 4 4 3 2 2 0 0 0 0 0 0 0 0 0 0 0 0 0 0 0 0 0 0 0 0 0 0 0 0 0 0 0 0 0 0 0 0 0 0 0 0 0 0 0 0 0
13 20 28 22 19 5 1 0 0 1 3 0 0 0 0 0 0 0 0 0 0 0 0 0 0 0 0 0 0 0 0 0 0 0 0 0 0 0 0 0 0 0 0 0 0 1 0
32 35 37 39 48 29 22 2 6 0 1 2 0 0 0 0 0 0 0 0 0 0 0 0 0 0 0 0 0 0 0 0 0 1 0 0 0 0 0 0 0 0 0 0 0 1 1
0 6 17 13 25 51 39 31 10 9 1 5 0 0 0 0 0 0 0 0 0 0 0 0 0 0 0 0 0 0 0 1 1 0 0 0 0 0 0 0 0 0 0 0 0 0 0
3 2 8 13 8 9 24 19 45 23 12 4 0 0 0 0 0 0 0 0 0 0 0 0 0 0 0 0 0 0 1 0 0 0 0 0 0 0 0 0 0 0 0 1 0 0 0
3 5 10 6 2 4 8 8 12 13 3 0 0 0 0 0 0 0 0 0 0 0 0 0 0 0 0 0 0 0 0 0 0 0 0 0 0 0 0 0 0 0 0 0 0 0 0
5 6 7 8 7 4 2 2 34 12 6 0 0 0 0 0 0 0 0 0 0 0 0 0 0 0 0 0 0 0 0 0 1 0 0 0 0 0 0 0 0 0 5 1 0 0 0
3 6 4 7 4 3 2 2 6 38 27 0 0 0 0 0 0 0 0 0 0 0 0 0 0 0 0 0 0 0 0 0 0 0 0 0 0 0 0 0 0 0 0 0 0 0 0
2 1 5 6 6 0 1 1 1 8 10 0 0 1 0 0 0 0 0 0 0 0 0 0 0 0 0 0 0 0 0 19 0 0 0 1 0 0 0 0 0 0 2 0 0 0 0
0 1 3 3 2 4 1 0 0 0 15 0 0 2 0 0 0 0 0 0 0 0 0 0 0 0 0 0 0 0 0 0 4 0 0 0 0 0 0 0 0 0 0 0 0 0 0
0 1 2 0 1 2 2 1 0 0 17 1 1 0 0 0 0 0 0 0 0 0 0 0 0 0 0 0 0 0 0 0 1 0 1 20 8 0 0 0 0 0 0 0 0 0 0
4 3 1 0 1 2 1 0 0 1 1 0 0 0 0 0 0 0 1 0 0 0 0 0 0 0 0 0 0 0 0 0 0 0 0 1 0 0 0 0 0 0 0 0 0 0 0
5 6 8 7 1 0 0 0 0 0 0 1 0 0 0 2 0 0 0 0 0 0 5 0 0 0 5 0 0 0 0 0 0 0 0 2 0 0 0 0 0 0 0 0 0 0 0
0 1 1 3 1 6 4 0 0 0 0 1 0 0 1 0 0 0 0 2 1 1 0 4 10 1 1 0 1 1 0 0 0 0 0 7 1 0 0 0 0 0 0 0 0 0 0
1 2 2 4 0 1 0 1 12 4 0 0 1 4 7 0 3 0 3 4 0 8 5 0 0 4 0 0 0 0 0 0 0 0 0 2 0 2 1 0 0 0 0 0 0 0 0
1 0 0 6 11 12 11 4 2 6 15 0 0 2 2 0 0 0 0 2 0 0 0 0 0 4 3 0 0 0 0 0 0 0 0 1 0 0 0 0 0 0 0 0 0 0 0
1 2 8 3 1 0 2 5 11 25 35 1 0 1 5 2 0 0 0 0 0 0 0 0 0 0 0 0 1 0 0 0 0 0 0 0 0 0 0 0 0 0 0 0 0 0 1
1 2 2 2 4 5 3 2 0 10 12 25 9 4 3 3 0 0 0 1 0 0 0 0 0 0 0 0 0 0 0 0 0 0 0 0 0 0 0 0 0 0 0 0 0 0 1
3 3 3 1 1 1 5 4 2 5 10 16 5 21 14 0 0 1 0 0 0 0 0 0 0 0 0 0 0 3 1 0 1 0 0 0 0 0 0 0 0 0 0 0 0 0 0
3 2 1 3 2 0 0 2 12 18 30 22 3 12 18 21 0 0 0 0 0 0 0 0 0 0 0 0 0 0 0 0 0 0 0 0 3 1 0 0 0 0 0 0 0 0 0
CIN
0 0 0 0 0 0 0 0 0 0 0 0 0 0 0 0 0 0 0 0 0 0 0 0 0 0 0 0 0 0 0 0 0 0 0 0 0 0 0 0 0 0 0 0 0 0 0
0 -2 0 0 0 0 0 0 0 0 0 0 0 0 0 0 0 0 0 0 0 0 0 0 0 0 0 0 0 0 0 0 0 0 0 0 0 0 0 0 0 0 0 0 0 0 0
-3 0 0 -1 -1 0 0 0 0 0 0 0 0 0 0 0 0 0 0 0 0 0 0 0 0 0 0 0 0 0 0 0 0 0 0 0 0 0 0 0 0 0 0 0 0 0 0
0 -1 -2 0 0 0 0 -1 0 0 0 0 0 0 0 0 0 0 0 0 0 0 0 0 0 0 0 0 0 0 0 0 0 0 0 0 0 0 0 0 0 0 0 0 0 0 0
-1 0 0 -1 0 0 0 -1 0 0 0 0 0 0 0 0 0 0 0 0 0 0 0 0 0 0 0 0 0 0 0 0 0 0 -2 -4 -6 0 0 0 0 0 0 0 0 0 0
0 0 0 0 0 0 0 0 0 0 0 0 0 0 0 0 0 0 0 0 0 0 0 0 0 0 0 0 0 0 0 0 0 -1 -1 -3 0 -1 0 0 0 0 0 0 0 0 0
0 0 -1 0 -1 0 0 0 0 0 0 0 0 0 0 0 0 0 0 0 0 0 0 0 0 0 0 0 0 0 0 0 0 -1 0 -5 0 0 0 0 0 0 0 0 0 0 0
0 0 0 0 -1 -1 0 0 0 -3 0 0 0 0 0 0 0 0 0 0 0 0 0 0 0 0 0 0 0 0 0 0 0 0 0 0 0 0 0 0 0 0 0 0 0 0 0
0 0 0 0 0 -1 0 0 0 0 0 0 0 0 0 0 0 0 0 0 0 0 0 0 0 0 0 0 0 0 0 0 0 0 0 0 0 0 0 0 0 0 0 0 0 0 0
0 -3 0 0 0 0 0 0 0 0 0 -1 0 0 0 0 0 0 0 0 0 0 0 0 0 0 0 0 0 0 0 0 0 0 0 0 0 0 0 0 0 0 0 0 0 0 0
-2 0 -1 -4 -8 -15 -16 0 -3 -33 -52 -1 0 0 0 0 0 0 0 0 0 0 0 0 0 0 0 0 0 0 0 -1 0 0 0 0 0 0 0 0 0 0 0 0 0 0 0
-2 0 -2 -1 0 -3 -8 -8 -28 0 -22 -11 0 0 0 0 0 0 0 0 0 0 0 0 0 0 0 0 0 0 0 0 0 -2 0 0 0 0 0 0 0 0 0 0 0 0 0
0 -7 -4 -3 -6 0 0 0 -13 -15 -1 -20 0 0 0 0 0 0 0 0 0 0 0 0 0 0 0 0 0 0 0 0 0 0 0 0 0 0 0 0 0 0 0 0 0 0 0
-2 -3 -6 -6 -1 -1 -4 -1 0 -3 -5 -36 0 0 0 0 0 0 0 0 0 0 0 0 0 0 0 0 0 0 0 0 0 0 0 0 0 0 0 0 0 0 0 -10 0 0 0
0 -1 -3 -3 0 0 -2 -3 -4 -2 -10 -4 0 0 0 0 0 0 0 0 0 0 0 0 0 0 0 0 0 0 0 0 0 0 0 -2 0 0 0 0 0 0 0 0 -1 0 0
-2 -1 -1 -1 0 0 -1 0 -8 -3 -2 0 0 0 0 0 0 0 0 0 0 0 0 0 0 0 0 0 0 0 0 0 -11 0 0 0 0 0 0 0 0 0 -3 -2 0 0 0
0 -1 -1 0 -1 0 0 0 -5 -4 -1 0 0 0 0 0 0 0 0 0 0 0 0 0 0 0 0 0 0 0 0 0 0 0 0 0 0 0 0 0 0 0 0 0 0 0 -3
0 -1 0 0 -1 0 0 0 0 -7 -12 -2 0 -1 0 0 0 0 0 0 0 0 0 0 0 0 0 0 0 0 0 -4 -18 -8 0 0 0 0 0 0 0 0 -3 -1 0 0 0
-1 0 0 0 0 0 0 0 0 0 -4 -4 0 -5 0 0 0 0 0 0 0 0 0 0 0 0 0 0 0 0 0 0 -3 0 0 0 0 0 0 0 0 0 0 0 0 0 0
-1 0 -1 0 -1 0 0 0 0 0 -5 -11 -13 0 0 0 0 0 0 0 0 0 0 0 0 0 0 0 0 0 0 -6 -2 0 -1 -3 -2 -1 0 0 0 0 0 0 0 0 0
0 -1 0 -1 -1 0 0 0 0 0 0 0 0 -1 0 0 0 0 0 0 0 0 0 0 0 0 -8 -5 0 0 0 0 0 0 0 -2 0 0 0 0 0 0 0 0 0 0 0
0 0 0 0 0 0 0 0 0 0 0 -6 0 0 0 -9 0 0 -14 0 0 0 -6 0 0 0 -5 -15 0 0 0 0 0 0 0 -14 -1 0 0 0 0 0 0 0 0 0 0
0 0 0 -1 -1 -3 -1 0 0 0 0 -2 0 0 -10 -1 -3 0 0 -4 -8 -3 0 -5 -2 -2 0 0 -2 -13 0 0 0 0 0 0 0 0 0 0 0 0 0 0 0 0 0
0 0 0 0 0 -1 0 -2 -4 -5 0 0 -12 -10 -2 0 -1 -1 -1 -3 -1 -2 -1 0 0 -1 0 -1 0 0 0 0 0 0 0 0 -1 0 -3 0 0 0 0 0 0 0 0
0 0 0 0 -1 -2 -2 -4 -5 -7 -3 0 0 -4 -2 -1 -2 0 0 -4 -5 0 0 0 0 -1 -7 0 0 0 0 0 0 0 0 0 0 0 -1 0 0 0 0 0 0 0 0
-1 0 0 0 -1 0 -5 -5 -3 -4 -3 -2 -2 -29 -7 0 0 -2 0 0 0 0 0 0 0 0 0 -3 -1 0 0 0 0 0 0 0 0 0 0 0 0 0 0 0 0 0 0
0 0 0 0 0 0 -1 0 0 -3 -5 -1 -6 -17 -10 -3 0 0 -1 -1 0 0 0 0 0 0 0 0 0 0 0 0 0 0 0 0 0 0 0 0 0 0 0 0 0 0 0
0 0 0 0 0 0 -1 -1 -1 -1 -2 -3 -1 -11 -10 -1 0 -4 0 0 0 0 0 0 0 0 0 0 0 -20 -9 0 -14 0 0 0 0 0 0 0 0 0 0 0 0 0 0
0 0 0 0 0 0 0 -2 0 -1 -1 -2 -2 -8 -10 0 -5 0 -2 0 0 0 0 0 0 0 0 -1 0 0 0 0 0 0 0 0 -9 -2 0 0 0 0 0 0 0 0 0
Wind_Speed
28 28 29 29 30 31 30 30 31 31 30 31 32 32 31 29 30 29 27 26 23 21 21 22 23 25 23 25 23 14 13 13 17 20 21 21 22 21 23 23 27 29 31 31 36 39 41
27 28 28 28 30 31 32 31 31 31 31 31 33 33 33 31 30 30 26 24 23 22 20 20 21 23 21 24 17 12 11 14 16 19 20 19 20 20 21 23 25 26 36 40 40 44 43
25 26 27 27 26 27 29 30 30 30 32 33 34 34 34 32 31 29 25 23 22 22 20 19 19 21 21 19 15 9 9 14 15 17 18 18 19 18 20 23 21 28 40 41 37 34 34
23 25 26 26 28 30 31 31 31 31 34 35 34 34 35 34 32 30 26 24 21 20 18 19 19 19 20 17 12 8 10 14 16 17 17 18 18 17 17 21 26 29 30 36 32 31 30
24 25 26 27 27 29 30 30 31 32 34 34 32 33 35 35 33 30 28 24 20 18 17 18 19 19 22 18 14 8 10 14 14 17 18 16 17 17 18 24 28 24 36 37 39 28 29
22 22 23 23 24 26 27 29 31 32 34 34 34 35 34 34 33 31 31 25 18 19 18 17 19 20 17 17 14 12 12 15 17 16 18 16 16 20 22 22 32 31 33 36 41 33 33
18 19 20 22 24 26 26 28 31 32 32 32 34 34 34 34 34 30 26 22 23 22 17 20 20 22 21 16 15 15 13 14 15 15 18 16 19 20 19 16 24 28 27 30 27 31 44
16 17 19 21 23 24 24 25 26 27 29 29 31 32 34 35 35 28 24 24 22 22 28 21 18 20 16 13 17 15 10 14 14 18 17 21 23 17 18 18 21 23 25 22 45 35 32
15 17 19 20 21 21 21 21 21 22 24 24 28 30 32 35 31 22 24 24 23 21 28 24 18 17 14 10 17 14 7 15 18 20 20 22 24 22 24 23 21 20 22 22 24 53 45
13 16 17 18 18 18 18 18 19 21 22 24 25 26 30 32 20 24 22 24 24 21 29 23 17 17 13 12 17 12 5 15 19 24 24 26 23 24 26 26 22 25 24 21 24 40 48
14 17 16 15 15 15 16 17 18 19 20 20 22 23 27 25 22 22 22 25 22 21 33 18 16 14 13 14 18 16 9 16 23 24 23 27 30 29 27 25 20 25 28 28 26 27 49
16 18 19 17 13 13 14 13 14 15 16 19 21 22 28 24 23 21 24 23 19 22 26 19 16 16 17 15 19 15 15 16 21 25 23 27 26 27 22 26 20 25 35 33 22 21 25
26 26 26 23 19 13 11 11 10 14 15 16 20 22 24 23 24 24 23 21 24 23 22 22 20 17 20 22 19 16 16 17 20 26 27 28 27 20 20 25 23 23 32 34 27 24 22
30 30 31 32 28 22 16 13 12 12 13 18 20 24 23 21 23 22 21 21 27 19 20 22 23 28 24 19 20 16 20 23 17 18 29 31 31 20 15 27 31 29 24 24 30 31 45
28 27 30 32 31 30 28 22 16 13 14 18 21 22 21 20 22 20 20 28 24 19 21 28 33 27 23 19 21 22 22 25 23 12 25 32 30 23 27 29 26 27 28 26 27 24 29
26 28 29 30 31 31 31 28 21 18 17 18 21 22 22 21 22 21 25 28 21 18 24 26 30 25 28 27 31 26 26 24 24 19 22 28 36 27 26 27 24 28 27 28 22 28 37
27 27 28 30 32 33 32 31 32 22 19 18 22 27 21 21 22 24 30 25 22 17 21 21 26 31 29 30 26 29 27 26 24 23 22 27 28 29 30 30 34 29 23 24 25 23 31
27 27 29 31 33 32 32 32 32 29 22 21 23 31 22 21 28 27 28 23 20 19 21 21 22 26 29 29 31 28 26 23 21 22 28 23 29 35 34 30 15 23 22 26 29 30 32
27 28 30 30 32 33 33 32 32 29 20 22 26 27 23 22 33 31 26 22 19 20 21 20 22 22 28 31 33 27 26 25 21 23 24 25 26 37 33 23 20 30 32 29 34 29 32
26 28 29 30 32 34 35 34 34 29 21 22 27 32 28 25 23 29 32 27 23 19 19 19 20 24 25 29 27 29 29 28 26 25 29 25 28 27 35 34 35 37 38 38 31 35 43
26 27 28 30 32 33 34 35 33 31 27 24 26 30 28 35 32 27 26 25 26 23 19 19 19 20 25 26 26 30 31 33 29 27 26 25 32 29 30 36 37 38 39 39 39 35 42
24 25 28 28 30 32 33 33 35 33 28 25 28 30 27 30 29 28 27 28 25 21 21 20 19 20 24 24 25 38 38 33 34 27 26 26 33 29 32 32 34 38 39 38 35 38 37
24 25 27 27 30 32 30 32 33 35 28 28 26 25 29 31 30 32 30 26 23 27 18 17 24 23 18 16 27 29 31 35 26 28 31 28 29 33 38 28 32 37 26 29 30 29 35
23 25 27 27 29 30 30 30 30 30 31 26 26 26 30 36 31 32 29 27 25 21 20 21 21 21 22 24 25 23 16 16 25 29 26 29 28 25 31 29 32 20 24 25 27 24 29
22 24 25 27 30 31 30 30 29 28 26 27 25 26 28 35 32 30 30 28 25 22 23 24 24 22 24 25 23 26 29 23 20 21 15 11 18 23 25 24 28 27 21 25 28 28 28
20 23 26 28 30 30 30 32 32 31 29 25 24 21 25 32 32 27 30 27 28 26 23 24 23 24 23 23 24 22 23 24 22 22 19 18 11 19 20 22 26 17 25 26 21 25 29
21 23 26 28 30 31 31 31 29 29 28 27 24 19 24 31 26 25 28 29 22 23 21 23 27 31 25 23 22 21 21 20 21 21 23 22 20 18 19 22 22 20 27 26 24 27 30
22 25 27 29 30 30 29 29 29 28 27 26 24 19 21 30 28 20 20 22 20 20 22 22 29 23 27 24 23 22 22 21 22 20 20 20 21 20 17 18 22 27 24 23 24 26 30
24 26 29 30 30 31 30 31 32 31 28 25 27 21 18 22 25 23 17 13 12 12 17 18 19 23 22 25 25 28 33 29 27 27 21 23 20 21 18 18 18 23 20 21 24 27 31
Wind_Direction
25 24 22 21 15 7 10 9 2 358 352 346 345 349 347 346 338 336 337 338 341 342 340 335 332 330 329 320 315 326 332 339 337 332 330 325 324 322 314 313 310 303 306 306 306 304 300
27 26 25 27 19 11 4 6 6 6 1 354 348 345 343 347 344 338 343 342 342 340 339 339 337 333 331 320 331 333 337 336 336 334 330 330 326 329 321 315 312 314 307 306 309 305 301
34 33 32 33 35 29 24 19 14 9 359 350 349 349 347 346 345 345 352 353 347 340 342 345 343 339 331 328 334 345 345 335 336 335 332 327 332 335 335 326 332 322 309 311 314 315 308
42 37 34 35 27 20 11 7 7 2 353 349 352 351 349 347 344 344 349 351 352 349 350 345 344 344 330 336 339 344 336 332 331 331 333 328 330 333 332 333 328 323 320 315 322 326 318
36 35 31 28 25 18 12 8 5 359 354 355 358 357 352 348 348 345 346 349 353 352 350 345 342 340 329 336 332 332 327 329 332 323 324 332 332 329 328 327 325 330 317 315 316 332 321
38 38 35 31 28 23 17 11 6 1 354 354 351 351 352 350 349 347 342 348 0 357 351 349 343 338 338 333 335 330 321 322 324 329 326 329 332 318 318 322 318 324 324 318 312 324 317
44 38 33 28 23 18 14 10 5 2 360 359 356 353 352 349 344 349 355 1 354 347 350 333 329 325 328 331 330 327 323 321 325 327 322 329 323 312 315 311 316 320 321 318 309 325 310
37 32 27 23 20 17 17 14 12 10 7 5 2 357 353 349 344 348 356 353 353 348 333 332 320 317 331 336 318 317 332 318 319 314 319 319 314 317 323 317 313 315 314 304 281 324 323
31 27 23 19 16 17 17 17 16 16 14 13 7 2 359 351 347 359 354 351 353 353 334 336 340 337 329 320 316 312 314 316 313 311 310 309 318 326 325 319 314 315 311 309 298 296 313
23 18 14 13 14 15 16 17 17 15 16 14 12 10 5 359 14 1 359 352 351 355 333 336 341 344 351 344 325 324 310 320 315 313 313 313 319 316 317 314 315 314 323 313 314 323 309
13 10 7 5 7 9 12 13 14 15 16 18 18 17 14 15 9 9 2 354 354 355 327 347 348 359 351 333 333 331 330 316 307 310 315 315 318 317 314 316 321 317 324 323 318 315 291
10 6 5 4 0 4 6 11 13 18 19 20 20 19 14 17 14 13 2 1 5 352 333 343 351 344 337 330 327 334 327 317 320 312 309 309 318 321 322 322 320 322 322 324 320 331 320
12 10 7 7 7 6 10 14 11 18 21 23 19 17 17 20 19 8 7 9 360 349 354 346 340 342 329 323 323 322 320 319 318 314 314 318 317 323 328 327 335 331 328 328 334 335 322
11 11 9 4 8 14 19 19 23 20 24 21 18 15 20 22 15 16 17 10 352 350 341 336 332 323 318 326 322 322 321 316 313 312 315 313 313 330 339 330 322 323 328 328 326 329 289
14 17 14 9 9 10 13 18 23 18 27 19 18 19 19 19 16 17 13 356 350 348 340 327 323 320 321 325 320 318 314 315 324 320 315 311 309 325 321 325 330 326 319 323 316 317 325
19 19 19 15 14 12 12 15 19 22 21 21 17 14 14 19 18 17 4 354 353 351 340 333 320 322 314 313 312 314 316 321 324 330 323 317 305 316 324 325 331 324 325 325 330 328 315
24 25 24 17 13 9 13 11 9 20 21 24 14 8 19 20 20 11 1 2 358 357 353 343 325 313 317 314 314 312 311 317 326 328 331 321 313 311 317 321 316 326 324 326 323 324 321
27 28 22 16 12 13 12 12 11 15 28 20 15 4 17 18 6 8 2 3 4 356 351 345 335 320 314 317 310 310 309 316 328 331 322 326 316 306 310 313 330 337 330 328 321 317 314
29 26 22 19 15 13 13 14 12 17 28 18 9 5 19 20 0 1 1 358 357 354 352 348 337 332 322 313 309 309 310 320 322 324 325 327 319 308 309 317 318 317 318 319 315 313 307
29 26 26 21 16 15 15 15 14 19 25 20 10 6 11 14 11 0 358 356 360 5 354 346 337 331 327 318 311 306 309 315 316 315 319 322 313 305 299 305 307 306 310 310 313 304 299
31 29 27 19 15 15 15 15 17 19 20 21 13 7 9 359 358 0 360 356 349 349 356 352 350 339 331 325 317 310 309 313 311 310 317 316 306 305 303 304 306 304 306 305 306 304 296
31 28 22 19 17 16 17 17 16 14 17 17 7 5 9 358 359 357 359 356 351 355 353 352 341 342 335 322 316 310 307 311 305 308 312 314 304 307 304 308 308 307 309 308 307 304 301
27 25 18 17 15 13 15 17 16 16 19 13 12 11 5 1 359 357 356 359 356 349 354 353 343 336 328 321 319 317 310 307 307 305 306 305 304 304 298 311 312 308 320 320 318 318 308
28 24 17 18 16 14 13 12 13 17 19 16 12 9 3 356 359 356 355 350 350 349 341 341 339 335 340 339 331 327 323 311 305 301 298 297 299 302 301 309 304 320 331 334 329 329 316
27 22 17 14 11 11 11 11 12 12 16 14 15 9 4 356 358 355 0 358 351 351 353 348 351 353 346 344 344 336 327 331 336 333 335 311 301 302 301 303 308 319 333 331 324 318 319
25 20 14 11 8 7 6 7 8 9 11 11 8 11 6 358 1 359 352 355 354 352 355 354 354 354 352 345 342 344 340 332 331 329 336 334 318 302 307 308 310 329 329 332 336 312 318
20 16 11 9 7 5 5 3 4 4 4 6 4 8 2 353 358 1 353 352 356 354 350 354 352 344 350 347 340 338 337 335 333 331 326 324 321 309 303 306 314 323 320 327 314 307 315
13 11 9 7 6 4 5 4 5 4 3 3 358 1 354 352 349 352 353 350 350 356 350 349 345 350 344 340 336 336 334 331 328 327 332 326 326 324 321 314 309 316 324 325 320 325 315
9 5 6 5 3 2 1 1 2 2 1 3 357 6 2 351 349 347 344 348 341 339 349 357 351 347 344 334 329 323 314 314 314 310 324 316 321 316 325 322 332 332 339 331 325 323 316